Location: Unspecified
(0.0000°N, 0.0000°E)
Time: 03:49:19
(UTC+00:00)

ESSA 4 - Pass Details

Date: 03 November 2024
Orbit: 1326 x 1439 km, 102.1° (Epoch: 03 December)

Event Time Altitude Azimuth Distance (km) Brightness Sun altitude
Rises 03:41:34 0° 155° (SSE) 4,343 12.4 -29.3°
Reaches altitude 10° 03:44:20 10° 151° (SSE) 3,363 11.8 -28.7°
Maximum altitude 03:51:54 59° 74° (ENE) 1,507 9.6 -26.9°
Drops below altitude 10° 03:59:26 10° 356° (N) 3,359 11.1 -25.1°
Sets 04:02:11 0° 353° (N) 4,337 11.7 -24.4°
